Theta_e
318 321 322 321 320 318 318 320 321 322 320 320 323 323 327 325 327 325 323 322 324 327 333 335 341 341 340 342 344 343 344 342 341 341 341 340 339 339 339 340 340 339 342 344
319 322 320 318 319 319 319 321 323 322 319 321 323 324 323 326 327 328 327 329 329 332 331 328 334 342 339 340 343 344 344 343 341 341 339 342 341 340 340 341 340 338 340 341
320 320 318 319 320 321 321 323 323 322 321 320 323 326 327 328 329 330 331 332 334 341 336 326 325 333 340 339 338 342 343 342 342 341 342 342 341 341 341 342 342 341 340 341
317 316 317 319 321 320 323 320 320 321 323 323 321 327 330 328 331 331 330 330 331 339 346 338 330 326 333 338 338 335 336 340 339 341 343 342 343 343 344 344 344 341 341 340
320 319 320 322 321 319 321 321 321 321 322 323 324 326 330 329 331 330 330 330 329 335 346 348 343 337 335 335 335 333 332 334 336 338 341 343 344 344 345 343 342 341 340 340
319 317 318 322 320 319 319 322 322 322 324 325 323 325 330 329 328 330 330 329 332 334 338 347 348 346 343 339 335 335 335 336 339 340 342 343 343 344 343 343 343 342 339 338
321 321 320 320 321 319 321 325 323 323 323 323 322 325 330 327 328 328 329 335 340 340 340 339 339 346 347 345 344 340 340 341 341 341 342 344 345 345 345 345 342 339 338 338
323 324 322 323 320 321 321 325 324 324 324 323 321 325 325 326 326 327 337 340 340 340 340 341 342 341 345 349 349 348 347 348 348 344 342 339 335 333 332 337 340 339 337 335
324 323 322 322 322 321 324 325 320 325 321 323 322 325 323 324 329 330 338 340 340 339 339 340 340 341 343 346 350 351 351 341 342 340 328 327 326 325 333 336 337 338 336 334
323 327 322 324 323 324 324 319 327 326 328 327 324 325 326 329 336 338 339 338 336 336 337 338 340 341 342 343 348 347 339 337 333 329 334 332 329 329 329 331 334 332 332 332
325 326 326 325 326 327 326 326 324 325 324 327 327 327 325 338 336 335 333 332 332 332 335 339 341 341 342 342 346 346 334 333 333 331 331 332 324 325 325 328 331 329 329 327
324 327 326 323 321 321 323 324 325 328 328 327 326 326 332 331 327 328 330 329 331 333 334 337 337 338 340 342 344 338 334 335 333 334 331 329 325 325 325 328 326 327 328 325
323 324 323 323 324 324 325 323 323 325 326 326 326 326 327 325 325 325 327 328 332 333 333 334 335 336 336 336 337 336 333 332 333 331 330 330 327 325 326 326 322 321 320 320
323 325 324 321 321 325 324 323 323 324 325 323 323 323 324 326 325 323 323 324 322 321 321 322 323 332 335 335 337 335 332 329 330 330 329 327 326 326 326 322 322 322 320 320
325 326 324 323 322 323 324 324 324 325 325 326 324 324 330 325 324 323 322 321 320 320 321 322 322 323 329 333 333 334 332 330 328 330 329 328 329 328 325 323 322 320 320 321
322 324 327 323 322 323 324 323 323 323 323 323 326 329 326 324 323 322 320 320 321 320 321 321 322 322 322 331 331 333 333 330 330 330 330 329 328 325 324 323 321 321 321 321
323 325 324 323 323 322 321 320 320 327 328 329 329 329 324 325 324 322 319 320 319 319 320 321 321 321 322 324 330 332 333 333 331 331 330 329 326 324 323 325 323 322 322 319
323 325 324 323 322 323 320 321 320 325 326 325 327 327 327 327 324 320 318 318 318 318 318 319 318 319 323 322 326 328 332 332 332 331 330 326 325 325 326 326 325 323 319 317
318 322 323 324 323 321 320 320 321 323 323 321 324 325 323 320 324 325 317 316 317 317 316 316 316 318 323 322 322 323 327 331 331 331 330 327 326 326 327 326 324 319 317 314
317 319 323 321 323 322 320 318 319 321 324 317 317 316 317 317 320 320 317 317 316 316 316 316 315 315 317 320 320 322 322 328 331 329 329 327 326 327 326 322 317 314 314 311
319 321 322 321 322 321 317 317 318 324 325 320 318 317 317 318 317 317 316 316 315 314 314 313 313 314 316 319 319 320 322 324 329 329 327 327 326 324 319 315 313 313 311 308
319 319 321 320 322 322 315 316 318 318 318 315 314 313 312 312 312 312 313 314 314 314 313 312 312 313 314 316 317 318 321 325 329 328 323 318 317 315 313 314 313 312 309 307
319 319 319 320 320 317 315 315 315 316 314 312 312 312 311 310 310 311 311 312 311 312 312 311 312 313 314 315 317 318 322 326 327 321 315 313 312 309 310 311 309 307 306 306
316 313 316 316 316 314 313 311 310 310 311 312 310 310 310 311 311 311 311 311 311 312 312 312 314 315 315 316 316 319 325 325 323 317 312 310 309 307 306 303 304 305 305 305
315 313 315 315 313 310 308 309 309 309 309 309 309 310 310 311 311 311 311 311 311 312 313 314 315 316 316 315 318 323 323 322 319 315 311 305 305 305 302 300 302 301 298 299
312 314 313 312 310 308 309 309 308 309 309 311 311 311 311 311 312 311 311 311 311 311 314 315 317 318 316 317 323 322 320 318 316 312 310 309 308 303 300 301 299 296 296 295
Wind_Speed
3 1 4 4 3 2 3 4 5 5 3 4 6 8 11 11 11 9 9 8 10 14 22 22 22 27 32 30 30 34 32 37 33 21 18 24 28 25 25 26 27 27 24 21
1 2 1 4 3 4 4 5 3 7 3 3 8 6 8 12 11 8 7 8 11 15 18 16 15 18 26 31 30 31 31 36 36 32 35 28 19 24 26 23 28 30 29 27
0 2 3 2 6 1 2 3 4 5 6 2 10 4 10 12 8 12 15 13 12 13 16 15 10 11 17 24 21 24 31 37 37 39 30 22 21 18 17 22 24 26 24 22
2 2 3 5 2 1 2 3 3 5 5 3 7 3 7 10 11 13 16 18 18 16 13 11 9 6 7 12 16 25 32 33 36 33 28 29 26 25 22 19 15 20 19 17
1 3 5 4 1 3 3 2 3 2 1 1 6 1 7 7 16 20 21 20 19 18 15 13 13 13 10 3 9 16 23 29 31 29 25 20 22 18 12 11 12 16 16 17
4 2 3 2 3 3 2 2 3 2 1 0 3 3 10 10 14 16 18 21 21 22 21 19 17 18 17 10 4 6 12 16 13 10 8 12 14 15 16 14 12 12 14 14
4 1 3 2 3 1 1 3 4 3 3 4 2 4 13 11 15 12 16 17 19 20 22 21 22 19 22 16 9 12 13 10 4 5 7 8 11 15 20 22 20 13 14 22
3 3 9 10 3 2 5 2 2 3 4 6 1 1 5 10 12 13 15 17 21 22 20 21 21 24 19 21 22 15 12 11 16 22 23 23 22 24 22 24 26 25 20 20
2 2 3 6 6 3 2 4 2 3 1 3 3 1 6 17 21 21 19 20 21 21 19 19 20 26 28 26 19 13 12 20 22 25 28 25 19 13 11 13 17 13 19 19
1 2 1 3 2 10 5 4 2 1 3 7 3 3 4 17 17 17 20 20 19 20 23 22 21 28 26 22 12 12 17 18 15 22 19 8 11 12 6 10 7 10 11 14
2 1 1 2 6 4 0 1 5 1 2 3 5 1 6 7 10 12 14 15 17 19 20 19 22 29 27 24 15 10 17 14 12 9 9 14 13 12 8 8 3 3 7 11
4 0 1 3 5 1 3 3 2 2 1 1 2 2 7 6 9 10 12 13 15 17 18 19 26 29 32 27 18 10 11 11 5 9 15 13 10 13 9 6 6 8 12 11
4 2 2 3 3 2 2 2 3 2 1 8 6 2 8 9 11 12 13 14 14 16 18 18 23 26 28 26 21 9 3 2 7 14 17 8 8 10 9 4 5 5 9 9
2 2 2 6 4 3 5 8 1 2 4 4 8 13 8 10 9 10 11 12 14 15 17 19 20 23 26 25 22 14 8 7 16 17 14 9 11 12 7 5 2 3 3 5
2 2 2 4 5 5 9 12 8 9 10 8 13 7 4 1 5 7 6 8 12 15 17 18 19 20 25 25 23 17 10 5 12 16 7 5 9 10 9 4 4 5 6 4
3 1 2 9 5 3 9 13 13 14 11 10 8 10 3 0 4 5 8 10 12 14 14 15 16 23 25 22 20 19 14 10 7 10 2 1 7 9 8 8 7 7 6 3
2 2 1 4 5 7 10 3 4 2 2 3 5 3 6 3 5 5 7 9 11 11 13 14 14 17 21 23 21 18 16 14 12 8 4 3 5 6 6 6 7 6 4 3
3 3 2 3 3 3 4 8 2 2 2 2 5 3 4 7 8 4 5 8 11 13 15 15 20 20 18 19 19 19 17 16 12 4 2 4 2 3 5 6 6 3 2 4
3 2 1 3 2 7 6 5 5 5 3 5 5 6 7 10 5 7 4 8 11 13 18 20 21 17 15 16 19 20 19 15 10 6 1 3 3 4 5 5 4 4 3 5
5 2 2 2 3 4 6 10 7 4 5 6 7 7 9 10 6 6 12 16 19 23 24 24 27 26 21 19 20 20 21 19 12 9 3 2 5 7 7 6 7 5 5 6
1 1 4 4 5 4 6 10 7 6 5 7 7 8 9 8 10 15 15 17 20 17 20 23 25 25 24 19 22 22 22 23 17 10 7 4 4 4 7 7 5 5 6 7
2 2 3 2 4 3 7 4 6 4 4 6 5 7 11 14 17 18 17 17 22 24 26 27 27 25 26 23 18 21 21 21 14 8 3 4 9 9 4 7 7 7 7 8
3 2 2 3 3 1 2 4 6 7 9 6 10 14 17 18 18 19 18 19 23 24 24 25 25 27 26 23 15 18 23 18 10 3 11 10 10 9 9 7 8 10 9 8
1 1 3 3 1 5 9 9 5 10 12 13 17 16 15 16 17 18 17 17 19 21 23 23 22 24 24 21 19 21 20 17 4 11 15 14 14 10 15 11 10 10 9 9
2 1 4 10 8 12 3 9 12 13 14 15 16 16 15 17 18 18 15 16 20 21 20 18 20 21 23 19 17 19 17 12 9 16 16 17 18 14 17 10 9 12 14 11
1 3 4 5 9 6 13 13 16 14 14 15 16 17 20 20 17 21 16 21 19 18 19 19 21 21 17 13 13 15 14 7 12 15 14 12 16 12 12 13 15 18 17 16
Wind_Direction
28 115 64 338 246 240 256 265 291 294 290 300 334 331 14 19 9 338 316 301 276 267 266 270 240 221 218 227 222 220 215 228 222 215 238 244 238 239 241 241 246 248 249 243
148 118 176 302 237 218 226 267 269 286 273 272 345 340 342 4 16 11 346 326 306 298 295 290 261 226 216 223 222 223 217 224 220 215 224 221 233 238 240 244 245 247 249 254
88 342 287 275 334 237 180 285 322 315 325 137 330 82 10 8 18 27 33 12 352 332 309 305 289 259 230 229 228 222 228 229 226 226 224 226 234 245 245 241 246 248 249 249
283 305 296 303 276 195 349 248 258 304 307 19 353 70 36 342 341 19 15 7 1 350 357 344 326 312 256 246 229 228 231 232 237 232 222 222 227 237 247 250 248 252 241 228
108 276 327 323 317 203 302 53 48 42 58 255 20 309 7 351 360 355 354 357 5 9 5 5 4 20 7 315 236 241 237 236 236 237 233 240 248 265 269 264 254 236 230 230
274 323 264 292 305 243 27 237 67 103 32 100 347 316 50 27 344 348 6 7 7 6 9 13 13 35 17 1 301 231 236 238 234 257 295 298 300 292 291 280 257 243 231 226
326 360 293 300 311 114 172 23 358 27 22 350 225 263 43 359 14 359 357 10 13 12 16 7 7 3 16 2 4 15 16 17 47 56 46 23 5 341 324 312 290 280 263 255
355 132 3 340 26 7 43 17 29 324 335 340 252 35 39 5 11 21 22 12 16 16 17 16 11 7 357 7 23 41 59 70 85 99 94 90 73 48 11 336 289 287 257 240
334 95 308 42 42 314 93 49 20 112 112 261 342 149 210 8 13 11 13 13 8 6 9 12 11 11 10 14 27 40 86 108 118 113 98 78 64 53 8 344 302 265 244 225
137 281 339 347 260 54 55 119 267 64 284 299 264 264 32 2 359 5 10 8 6 5 8 8 9 11 11 15 29 78 107 98 103 115 109 69 332 315 326 10 318 278 228 200
2 275 43 266 24 334 11 77 54 61 335 298 296 69 21 14 7 10 12 10 9 7 8 9 10 13 12 13 25 84 106 125 128 109 75 1 4 357 2 356 18 177 173 160
11 44 349 3 14 315 61 78 56 332 282 191 265 266 33 44 35 23 22 18 14 14 12 13 15 17 19 17 20 78 123 138 127 3 349 353 32 13 24 26 88 115 124 135
355 32 314 163 197 153 40 48 82 75 314 240 272 285 52 52 45 29 20 18 18 18 19 17 19 19 18 16 15 18 63 54 10 353 349 3 21 54 58 88 124 142 138 141
191 87 278 277 321 326 297 300 65 231 257 298 266 297 336 25 27 21 15 18 20 24 24 20 18 16 16 11 13 14 358 8 1 337 351 21 76 88 92 124 166 157 172 155
38 311 284 266 248 249 266 276 284 251 266 268 302 290 297 327 356 3 5 20 25 24 20 16 13 12 12 9 6 6 12 352 348 354 22 93 105 110 117 136 199 195 212 205
8 281 306 282 277 259 276 278 279 277 274 261 259 274 207 307 341 358 18 17 16 12 7 7 6 8 9 6 5 356 350 345 323 342 360 147 131 127 139 153 197 209 217 193
318 197 282 271 4 316 282 39 350 138 221 276 266 321 171 258 317 346 358 358 356 352 357 356 359 358 1 0 352 354 350 337 330 325 218 184 144 129 146 162 192 203 190 172
192 179 217 295 306 257 47 323 246 211 200 270 273 269 274 293 287 290 355 343 341 342 345 348 347 342 347 355 354 346 345 350 343 323 191 144 147 165 166 178 190 179 145 122
223 200 197 284 277 314 138 43 349 352 333 9 327 325 335 341 295 238 335 336 322 322 326 326 330 320 321 338 348 349 345 347 343 318 230 165 186 203 185 179 167 147 126 98
99 64 250 160 255 271 46 346 341 279 257 31 10 1 354 346 312 321 336 329 324 322 321 323 325 324 324 334 342 347 346 337 325 313 295 231 243 206 192 170 142 133 121 105
351 54 247 222 253 267 5 325 319 255 10 336 331 334 326 316 312 308 307 305 310 314 321 327 330 328 326 327 335 331 341 340 309 301 294 261 223 183 143 133 123 117 106 107
273 262 220 184 237 251 356 346 4 330 278 290 322 335 328 315 306 305 306 310 314 316 321 326 324 319 315 316 327 325 331 331 306 293 300 117 118 104 104 102 88 86 89 87
239 263 318 246 333 169 292 358 345 309 300 292 305 311 313 307 302 305 305 303 304 307 308 314 314 311 309 314 325 324 326 329 307 204 126 102 86 79 82 79 86 88 84 70
233 145 262 287 124 323 322 316 307 316 291 297 309 303 306 305 310 311 309 308 306 310 312 315 316 317 313 321 325 330 337 324 296 123 118 109 103 93 79 64 69 69 54 45
326 217 275 278 297 320 314 309 316 307 301 299 299 299 297 301 301 302 306 307 311 315 312 315 315 317 314 318 329 340 342 331 123 124 128 112 99 81 93 87 82 80 63 61
250 341 281 293 318 289 293 306 307 300 297 301 301 296 294 298 296 296 296 297 299 304 310 312 320 325 322 318 338 358 2 39 118 121 120 119 118 122 123 120 93 79 73 62